KAZTUBAC1 Weather Reports


time (UTC)temp
F
wind
direction
speed
knots
gust
knots
rain 1hr
in
rain 24hr
in
rain mn
in
humidity
%
barometer
mb
20260504070134 68 0 5.2 13.0 0.00 0.00 0.00 26 1007.6
20260504045827 70 0 3.5 10.4 0.00 0.00 0.00 21 1007.9
20260504044820 70 0 2.6 8.7 0.00 0.00 0.00 21 1008.4
20260504043805 70 0 1.7 6.1 0.00 0.00 0.00 21 1008.4
20260504042748 71 0 0.9 6.1 0.00 0.00 0.00 19 1008.3
20260504041757 71 0 2.6 10.4 0.00 0.00 0.00 18 1008.4
20260504040738 71 0 1.7 10.4 0.00 0.00 0.00 17 1008.4
20260504035714 72 0 2.6 10.4 0.00 0.00 0.00 17 1008.1
20260504034708 72 0 2.6 10.4 0.00 0.00 0.00 18 1007.9
20260504033723 72 0 3.5 10.4 0.00 0.00 0.00 18 1007.9
20260504032653 72 0 0.9 8.7 0.00 0.00 0.00 18 1007.9
20260504031631 72 0 0.9 9.6 0.00 0.00 0.00 17 1007.7
20260504030646 73 0 1.7 9.6 0.00 0.00 0.00 16 1007.7
20260504025700 73 0 1.7 9.6 0.00 0.00 0.00 15 1007.4
20260504023545 74 0 6.1 13.0 0.00 0.00 0.00 14 1007.1
20260504022544 74 0 7.8 13.9 0.00 0.00 0.00 14 1006.8
20260504021509 75 0 6.1 13.9 0.00 0.00 0.00 13 1006.6
20260504020513 75 0 6.1 11.3 0.00 0.00 0.00 12 1006.5
20260504015536 76 0 7.0 14.8 0.00 0.00 0.00 12 1006.2
20260504014549 76 0 7.8 14.8 0.00 0.00 0.00 11 1006.3
20260504013606 77 0 5.2 12.2 0.00 0.00 0.00 10 1006.3
20260504012630 78 0 4.3 8.7 0.00 0.00 0.00 8 1006.2
20260504011556 79 0 6.1 13.0 0.00 0.00 0.00 7 1006.0
20260504010538 80 0 7.0 13.0 0.00 0.00 0.00 6 1006.2
20260504005601 81 0 5.2 12.2 0.00 0.00 0.00 5 1006.1
20260504004602 82 0 6.1 18.2 0.00 0.00 0.00 4 1005.9
20260504002511 82 0 8.7 16.5 0.00 0.00 0.00 5 1005.9
20260504001534 83 0 6.1 16.5 0.00 0.00 0.00 4 1005.7
20260503234345 83 0 3.5 10.4 0.00 0.00 0.00 6 1005.7
20260503233341 83 0 6.1 13.9 0.00 0.00 0.00 5 1005.9
20260503232321 83 0 6.1 15.6 0.00 0.00 0.00 5 1005.8
20260503231322 83 0 6.1 15.6 0.00 0.00 0.00 5 1006.0
20260503230327 83 0 7.8 22.6 0.00 0.00 0.00 6 1005.9
20260503225310 83 0 7.0 22.6 0.00 0.00 0.00 5 1006.2
20260503224306 84 0 7.8 20.0 0.00 0.00 0.00 4 1006.4
20260503222115 85 0 5.2 14.8 0.00 0.00 0.00 5 1006.2
20260503221102 86 0 7.0 17.4 0.00 0.00 0.00 6 1006.3
20260503220052 86 0 7.8 17.4 0.00 0.00 0.00 6 1006.2
20260503215027 86 0 6.1 14.8 0.00 0.00 0.00 8 1006.2
20260503214009 86 0 7.0 14.8 0.00 0.00 0.00 8 1006.0
20260503212958 86 0 4.3 15.6 0.00 0.00 0.00 8 1005.9
20260503212002 86 0 6.1 15.6 0.00 0.00 0.00 7 1006.0
20260503211007 86 0 7.8 13.9 0.00 0.00 0.00 7 1006.3
20260503205002 85 0 5.2 18.2 0.00 0.00 0.00 9 1006.6
20260503204025 85 0 7.0 18.2 0.00 0.00 0.00 9 1006.7
20260503203008 85 0 7.8 17.4 0.00 0.00 0.00 10 1006.7
20260503202033 84 0 7.8 17.4 0.00 0.00 0.00 10 1006.7
20260503201003 83 0 8.7 20.9 0.00 0.00 0.00 9 1006.6
20260503195941 84 0 8.7 20.9 0.00 0.00 0.00 8 1006.8
20260503194927 85 0 8.7 18.2 0.00 0.00 0.00 10 1006.8
20260503193910 84 0 7.0 18.2 0.00 0.00 0.00 9 1007.0
20260503192930 85 0 7.0 18.2 0.00 0.00 0.00 10 1007.1
20260503191925 85 0 8.7 18.2 0.00 0.00 0.00 9 1007.4
20260503190855 85 0 7.0 14.8 0.00 0.00 0.00 12 1007.4
20260503185833 84 0 7.8 16.5 0.00 0.00 0.00 11 1007.9
20260503184827 82 0 6.1 16.5 0.00 0.00 0.00 13 1007.9
20260503183845 81 0 5.2 13.9 0.00 0.00 0.00 14 1008.0
20260503182855 81 0 2.6 8.7 0.00 0.00 0.00 16 1008.2
20260503181849 80 0 3.5 11.3 0.00 0.00 0.00 19 1008.5
20260503180818 80 0 4.3 11.3 0.00 0.00 0.00 19 1008.5
20260503175814 79 0 2.6 7.0 0.00 0.00 0.00 24 1008.7
20260503174803 79 0 2.6 7.8 0.00 0.00 0.00 26 1009.0
20260503173825 78 0 1.7 8.7 0.00 0.00 0.00 25 1009.4
20260503171713 77 0 1.7 8.7 0.00 0.00 0.00 27 1009.5
20260503170728 76 0 1.7 8.7 0.00 0.00 0.00 26 1009.6
20260503150812 67 0 3.5 7.8 0.00 0.00 0.00 40 1009.3
20260503110521 61 0 0.9 3.5 0.00 0.00 0.00 39 1008.7
20260503090132 64 0 0.0 4.3 0.00 0.00 0.00 33 1009.1
20260503081058 64 0 0.0 0.9 0.00 0.00 0.00 42 1009.7
20260503080117 65 0 0.0 0.9 0.00 0.00 0.00 41 1009.9
20260503072936 66 0 0.9 1.7 0.00 0.00 0.00 39 1009.6
20260503071937 66 0 0.9 1.7 0.00 0.00 0.00 39 1009.7
20260503070921 65 0 0.0 3.5 0.00 0.00 0.00 40 1009.6